SILO ALERT LOG
| Silo ID | Alert Type | Alert Message | Silo Type | Points | Depth (mm) | Strength | Temperature (°C) | Humidity (%) | Height (mm) | Volume (㎥) | Weight (t) | Flag | Time |
|---|---|---|---|---|---|---|---|---|---|---|---|---|---|
| WJWJR05 | Humidity | 습도센서 측정값이 80% 초과 | 평 | 66 | 5260 | 3087 | 25.7 | 80.8 | 2470 | 279.35 | 176.605 | 0 | 2026-07-10 04:25:46.000 |
| WJWJR01 | Humidity | 습도센서 측정값이 80% 초과 | 평 | 75 | 7510 | 1232 | 23 | 83.8 | 129 | 14.703 | 9.295 | 0 | 2026-07-10 03:25:56.000 |
| WJWJR05 | Humidity | 습도센서 측정값이 80% 초과 | 평 | 65 | 5250 | 3095 | 25.8 | 80.6 | 2480 | 280.481 | 177.32 | 0 | 2026-07-10 03:25:47.000 |
| WJWJR01 | Humidity | 습도센서 측정값이 80% 초과 | 평 | 74 | 7510 | 1214 | 23.1 | 83.7 | 129 | 14.703 | 9.295 | 0 | 2026-07-10 02:26:02.000 |
| WJWJR05 | Humidity | 습도센서 측정값이 80% 초과 | 평 | 65 | 5270 | 3095 | 25.9 | 80.6 | 2460 | 278.219 | 175.89 | 0 | 2026-07-10 02:25:48.000 |
| WJWJR01 | Humidity | 습도센서 측정값이 80% 초과 | 평 | 77 | 7510 | 1209 | 23.1 | 83.7 | 129 | 14.703 | 9.295 | 0 | 2026-07-10 01:26:03.000 |
| WJWJR05 | Humidity | 습도센서 측정값이 80% 초과 | 평 | 66 | 5240 | 3089 | 26 | 80.5 | 2490 | 281.612 | 178.035 | 0 | 2026-07-10 01:25:50.000 |
| WJWJR01 | Humidity | 습도센서 측정값이 80% 초과 | 평 | 77 | 7510 | 1258 | 23.3 | 83.3 | 129 | 14.703 | 9.295 | 0 | 2026-07-10 00:26:04.000 |
| WJWJR05 | Humidity | 습도센서 측정값이 80% 초과 | 평 | 65 | 5290 | 3096 | 26.1 | 80.4 | 2440 | 275.957 | 174.46 | 0 | 2026-07-10 00:25:50.000 |
| WJWJR01 | Humidity | 습도센서 측정값이 80% 초과 | 평 | 74 | 7520 | 1206 | 23.4 | 82.9 | 120 | 13.572 | 8.58 | 0 | 2026-07-09 23:26:00.000 |
| WJWJR05 | Humidity | 습도센서 측정값이 80% 초과 | 평 | 65 | 5260 | 3062 | 26.2 | 80.1 | 2470 | 279.35 | 176.605 | 0 | 2026-07-09 23:25:50.000 |
| WJWJR01 | Humidity | 습도센서 측정값이 80% 초과 | 평 | 75 | 7530 | 1220 | 23.5 | 82 | 109 | 12.441 | 7.865 | 0 | 2026-07-09 22:25:58.000 |
| WJWJR01 | Humidity | 습도센서 측정값이 80% 초과 | 평 | 75 | 7480 | 1215 | 23.7 | 81.2 | 159 | 18.096 | 11.44 | 0 | 2026-07-09 21:25:58.000 |
| WJWJR01 | Humidity | 습도센서 측정값이 80% 초과 | 평 | 74 | 7520 | 1204 | 24 | 80.3 | 120 | 13.572 | 8.58 | 0 | 2026-07-09 20:26:01.000 |
| WJWJR01 | Humidity | 습도센서 측정값이 80% 초과 | 평 | 72 | 7480 | 1218 | 24 | 81.5 | 159 | 18.096 | 11.44 | 0 | 2026-07-09 16:26:00.000 |
| WJWJR01 | Humidity | 습도센서 측정값이 80% 초과 | 평 | 73 | 7530 | 1222 | 23.4 | 83.2 | 109 | 12.441 | 7.865 | 0 | 2026-07-09 15:26:02.000 |
| WJWJR01 | Humidity | 습도센서 측정값이 80% 초과 | 평 | 72 | 7530 | 1256 | 23.2 | 83.5 | 109 | 12.441 | 7.865 | 0 | 2026-07-09 14:26:05.000 |
| WJWJR01 | Humidity | 습도센서 측정값이 80% 초과 | 평 | 74 | 7560 | 1215 | 23.4 | 83.4 | 80 | 9.048 | 5.72 | 0 | 2026-07-09 13:25:57.000 |
| WJWJR01 | Humidity | 습도센서 측정값이 80% 초과 | 평 | 74 | 7520 | 1237 | 23.5 | 83.5 | 120 | 13.572 | 8.58 | 0 | 2026-07-09 12:26:02.000 |
| WJWJR01 | Humidity | 습도센서 측정값이 80% 초과 | 평 | 77 | 7500 | 1238 | 23.5 | 83.4 | 139 | 15.834 | 10.01 | 0 | 2026-07-09 11:25:59.000 |
[첫 페이지] [35] [36] [37] [38] 39 [40] [41] [42] [43] [마지막 페이지]